Time,TemperatureF,DewpointF,PressureIn,WindDirection,WindDirectionDegrees,WindSpeedMPH,WindSpeedGustMPH,Humidity,HourlyPrecipIn,Conditions,Clouds,dailyrainin,SoftwareType,DateUTC
2013-06-07 00:00:00,60.0,55.0,-100.00,North,352,2.0,-999.0,81,0.00,,,-99.99,,2013-06-07 07:00:00,
2013-06-07 00:22:00,60.0,55.0,-100.00,North,352,2.0,-999.0,81,0.00,,,-99.99,,2013-06-07 07:22:00,
2013-06-07 00:32:00,60.0,55.0,-100.00,North,352,2.0,-999.0,81,0.00,,,-99.99,,2013-06-07 07:32:00,
2013-06-07 00:42:00,60.0,55.0,-100.00,North,352,2.0,-999.0,81,0.00,,,-99.99,,2013-06-07 07:42:00,
2013-06-07 00:52:00,60.0,55.0,-100.00,North,352,2.0,-999.0,81,0.00,,,-99.99,,2013-06-07 07:52:00,
2013-06-07 01:00:00,58.0,54.0,-100.00,NNW,343,4.0,-999.0,85,0.00,,,-99.99,,2013-06-07 08:00:00,
2013-06-07 01:22:00,58.0,54.0,-100.00,NNW,343,4.0,-999.0,85,0.00,,,-99.99,,2013-06-07 08:22:00,
2013-06-07 01:32:00,58.0,54.0,-100.00,NNW,343,4.0,-999.0,85,0.00,,,-99.99,,2013-06-07 08:32:00,
2013-06-07 01:43:00,58.0,54.0,-100.00,NNW,343,4.0,-999.0,85,0.00,,,-99.99,,2013-06-07 08:43:00,
2013-06-07 01:52:00,58.0,54.0,-100.00,NNW,343,4.0,-999.0,85,0.00,,,-99.99,,2013-06-07 08:52:00,
2013-06-07 02:00:00,56.0,53.0,-100.00,NNW,346,4.0,-999.0,88,0.00,,,-99.99,,2013-06-07 09:00:00,
2013-06-07 02:22:00,56.0,53.0,-100.00,NNW,346,4.0,-999.0,88,0.00,,,-99.99,,2013-06-07 09:22:00,
2013-06-07 02:32:00,56.0,53.0,-100.00,NNW,346,4.0,-999.0,88,0.00,,,-99.99,,2013-06-07 09:32:00,
2013-06-07 02:43:00,56.0,53.0,-100.00,NNW,346,4.0,-999.0,88,0.00,,,-99.99,,2013-06-07 09:43:00,
2013-06-07 02:53:00,56.0,53.0,-100.00,NNW,346,4.0,-999.0,88,0.00,,,-99.99,,2013-06-07 09:53:00,
2013-06-07 03:00:00,54.0,52.0,-100.00,North,350,5.0,-999.0,90,0.00,,,-99.99,,2013-06-07 10:00:00,
2013-06-07 03:23:00,54.0,52.0,-100.00,North,350,5.0,-999.0,90,0.00,,,-99.99,,2013-06-07 10:23:00,
2013-06-07 03:33:00,54.0,52.0,-100.00,North,350,5.0,-999.0,90,0.00,,,-99.99,,2013-06-07 10:33:00,
2013-06-07 03:42:00,54.0,52.0,-100.00,North,350,5.0,-999.0,90,0.00,,,-99.99,,2013-06-07 10:42:00,
2013-06-07 03:53:00,54.0,52.0,-100.00,North,350,5.0,-999.0,90,0.00,,,-99.99,,2013-06-07 10:53:00,
2013-06-07 04:00:00,53.0,50.0,-100.00,NNW,342,4.0,-999.0,91,0.00,,,-99.99,,2013-06-07 11:00:00,
2013-06-07 04:22:00,53.0,50.0,-100.00,NNW,342,4.0,-999.0,91,0.00,,,-99.99,,2013-06-07 11:22:00,
2013-06-07 04:32:00,53.0,50.0,-100.00,NNW,342,4.0,-999.0,91,0.00,,,-99.99,,2013-06-07 11:32:00,
2013-06-07 04:42:00,53.0,50.0,-100.00,NNW,342,4.0,-999.0,91,0.00,,,-99.99,,2013-06-07 11:42:00,
2013-06-07 04:52:00,53.0,50.0,-100.00,NNW,342,4.0,-999.0,91,0.00,,,-99.99,,2013-06-07 11:52:00,
2013-06-07 05:00:00,51.0,49.0,-100.00,NNW,343,4.0,-999.0,92,0.00,,,-99.99,,2013-06-07 12:00:00,
2013-06-07 05:33:00,51.0,49.0,-100.00,NNW,343,4.0,-999.0,92,0.00,,,-99.99,,2013-06-07 12:33:00,
2013-06-07 05:42:00,51.0,49.0,-100.00,NNW,343,4.0,-999.0,92,0.00,,,-99.99,,2013-06-07 12:42:00,
2013-06-07 05:52:00,51.0,49.0,-100.00,NNW,343,4.0,-999.0,92,0.00,,,-99.99,,2013-06-07 12:52:00,
2013-06-07 06:00:00,50.0,48.0,-100.00,North,349,3.0,-999.0,92,0.00,,,-99.99,,2013-06-07 13:00:00,
2013-06-07 06:32:00,50.0,48.0,-100.00,North,349,3.0,-999.0,92,0.00,,,-99.99,,2013-06-07 13:32:00,
2013-06-07 06:43:00,50.0,48.0,-100.00,North,349,3.0,-999.0,92,0.00,,,-99.99,,2013-06-07 13:43:00,
2013-06-07 06:52:00,50.0,48.0,-100.00,North,349,3.0,-999.0,92,0.00,,,-99.99,,2013-06-07 13:52:00,
2013-06-07 07:00:00,50.0,48.0,-100.00,North,9,2.0,-999.0,92,0.00,,,-99.99,,2013-06-07 14:00:00,
2013-06-07 07:23:00,50.0,48.0,-100.00,North,9,2.0,-999.0,92,0.00,,,-99.99,,2013-06-07 14:23:00,
2013-06-07 07:33:00,50.0,48.0,-100.00,North,9,2.0,-999.0,92,0.00,,,-99.99,,2013-06-07 14:33:00,
2013-06-07 07:42:00,50.0,48.0,-100.00,North,9,2.0,-999.0,92,0.00,,,-99.99,,2013-06-07 14:42:00,
2013-06-07 07:52:00,50.0,48.0,-100.00,North,9,2.0,-999.0,92,0.00,,,-99.99,,2013-06-07 14:52:00,
2013-06-07 08:00:00,50.0,48.0,-100.00,North,353,4.0,-999.0,91,0.00,,,-99.99,,2013-06-07 15:00:00,
2013-06-07 08:23:00,50.0,48.0,-100.00,North,353,4.0,-999.0,91,0.00,,,-99.99,,2013-06-07 15:23:00,
2013-06-07 08:33:00,50.0,48.0,-100.00,North,353,4.0,-999.0,91,0.00,,,-99.99,,2013-06-07 15:33:00,
2013-06-07 08:43:00,50.0,48.0,-100.00,North,353,4.0,-999.0,91,0.00,,,-99.99,,2013-06-07 15:43:00,
2013-06-07 08:53:00,50.0,48.0,-100.00,North,353,4.0,-999.0,91,0.00,,,-99.99,,2013-06-07 15:53:00,
2013-06-07 09:00:00,53.0,50.0,-100.00,North,352,1.0,-999.0,89,0.00,,,-99.99,,2013-06-07 16:00:00,
2013-06-07 09:22:00,53.0,50.0,-100.00,North,352,1.0,-999.0,89,0.00,,,-99.99,,2013-06-07 16:22:00,
2013-06-07 09:33:00,53.0,50.0,-100.00,North,352,1.0,-999.0,89,0.00,,,-99.99,,2013-06-07 16:33:00,
2013-06-07 09:43:00,53.0,50.0,-100.00,North,352,1.0,-999.0,89,0.00,,,-99.99,,2013-06-07 16:43:00,
2013-06-07 09:53:00,53.0,50.0,-100.00,North,352,1.0,-999.0,89,0.00,,,-99.99,,2013-06-07 16:53:00,
2013-06-07 11:00:00,73.0,55.0,-100.00,North,353,3.0,-999.0,53,0.00,,,-99.99,,2013-06-07 18:00:00,
2013-06-07 11:28:00,73.0,55.0,-100.00,North,353,3.0,-999.0,53,0.00,,,-99.99,,2013-06-07 18:28:00,
2013-06-07 11:38:00,73.0,55.0,-100.00,North,353,3.0,-999.0,53,0.00,,,-99.99,,2013-06-07 18:38:00,
2013-06-07 11:45:00,73.0,55.0,-100.00,North,353,3.0,-999.0,53,0.00,,,-99.99,,2013-06-07 18:45:00,
2013-06-07 11:58:00,73.0,55.0,-100.00,North,353,3.0,-999.0,53,0.00,,,-99.99,,2013-06-07 18:58:00,
2013-06-07 12:00:00,80.0,57.0,-100.00,North,350,4.0,-999.0,44,0.00,,,-99.99,,2013-06-07 19:00:00,
2013-06-07 12:39:00,80.0,57.0,-100.00,North,350,4.0,-999.0,44,0.00,,,-99.99,,2013-06-07 19:39:00,
2013-06-07 12:50:00,80.0,57.0,-100.00,North,350,4.0,-999.0,44,0.00,,,-99.99,,2013-06-07 19:50:00,
2013-06-07 12:56:00,80.0,57.0,-100.00,North,350,4.0,-999.0,44,0.00,,,-99.99,,2013-06-07 19:56:00,
2013-06-07 13:00:00,88.0,58.0,-100.00,NNW,337,4.0,-999.0,37,0.00,,,-99.99,,2013-06-07 20:00:00,
2013-06-07 13:28:00,88.0,58.0,-100.00,NNW,337,4.0,-999.0,37,0.00,,,-99.99,,2013-06-07 20:28:00,
2013-06-07 13:49:00,88.0,58.0,-100.00,NNW,337,4.0,-999.0,37,0.00,,,-99.99,,2013-06-07 20:49:00,
2013-06-07 13:57:00,88.0,58.0,-100.00,NNW,337,4.0,-999.0,37,0.00,,,-99.99,,2013-06-07 20:57:00,
2013-06-07 14:30:00,93.0,53.0,-100.00,NW,307,2.0,-999.0,26,0.00,,,-99.99,,2013-06-07 21:30:00,
2013-06-07 14:41:00,93.0,53.0,-100.00,NW,307,2.0,-999.0,26,0.00,,,-99.99,,2013-06-07 21:41:00,
2013-06-07 14:47:00,93.0,53.0,-100.00,NW,307,2.0,-999.0,26,0.00,,,-99.99,,2013-06-07 21:47:00,
2013-06-07 14:58:00,93.0,53.0,-100.00,NW,307,2.0,-999.0,26,0.00,,,-99.99,,2013-06-07 21:58:00,
2013-06-07 15:00:00,95.0,52.0,-100.00,NW,313,3.0,-999.0,23,0.00,,,-99.99,,2013-06-07 22:00:00,
2013-06-07 15:29:00,95.0,52.0,-100.00,NW,313,3.0,-999.0,23,0.00,,,-99.99,,2013-06-07 22:29:00,
2013-06-07 15:39:00,95.0,52.0,-100.00,NW,313,3.0,-999.0,23,0.00,,,-99.99,,2013-06-07 22:39:00,
2013-06-07 15:49:00,95.0,52.0,-100.00,NW,313,3.0,-999.0,23,0.00,,,-99.99,,2013-06-07 22:49:00,
2013-06-07 15:58:00,95.0,52.0,-100.00,NW,313,3.0,-999.0,23,0.00,,,-99.99,,2013-06-07 22:58:00,
2013-06-07 16:00:00,94.0,48.0,-100.00,NW,307,1.0,-999.0,20,0.00,,,-99.99,,2013-06-07 23:00:00,
2013-06-07 16:32:00,94.0,48.0,-100.00,NW,307,1.0,-999.0,20,0.00,,,-99.99,,2013-06-07 23:32:00,
2013-06-07 16:40:00,94.0,48.0,-100.00,NW,307,1.0,-999.0,20,0.00,,,-99.99,,2013-06-07 23:40:00,
2013-06-07 16:52:00,94.0,48.0,-100.00,NW,307,1.0,-999.0,20,0.00,,,-99.99,,2013-06-07 23:52:00,
2013-06-07 16:59:00,94.0,48.0,-100.00,NW,307,1.0,-999.0,20,0.00,,,-99.99,,2013-06-07 23:59:00,
2013-06-07 17:00:00,95.0,47.0,-100.00,NNW,331,5.0,-999.0,20,0.00,,,-99.99,,2013-06-08 00:00:00,
2013-06-07 17:36:00,95.0,47.0,-100.00,NNW,331,5.0,-999.0,20,0.00,,,-99.99,,2013-06-08 00:36:00,
2013-06-07 17:46:00,95.0,47.0,-100.00,NNW,331,5.0,-999.0,20,0.00,,,-99.99,,2013-06-08 00:46:00,
2013-06-07 17:56:00,95.0,47.0,-100.00,NNW,331,5.0,-999.0,20,0.00,,,-99.99,,2013-06-08 00:56:00,
2013-06-07 18:00:00,95.0,51.0,-100.00,NNW,344,4.0,-999.0,22,0.00,,,-99.99,,2013-06-08 01:00:00,
2013-06-07 18:29:00,95.0,51.0,-100.00,NNW,344,4.0,-999.0,22,0.00,,,-99.99,,2013-06-08 01:29:00,
2013-06-07 18:39:00,95.0,51.0,-100.00,NNW,344,4.0,-999.0,22,0.00,,,-99.99,,2013-06-08 01:39:00,
2013-06-07 18:47:00,95.0,51.0,-100.00,NNW,344,4.0,-999.0,22,0.00,,,-99.99,,2013-06-08 01:47:00,
2013-06-07 18:58:00,95.0,51.0,-100.00,NNW,344,4.0,-999.0,22,0.00,,,-99.99,,2013-06-08 01:58:00,
2013-06-07 19:00:00,92.0,51.0,-100.00,NNW,331,2.0,-999.0,24,0.00,,,-99.99,,2013-06-08 02:00:00,
2013-06-07 19:30:00,92.0,51.0,-100.00,NNW,331,2.0,-999.0,24,0.00,,,-99.99,,2013-06-08 02:30:00,
2013-06-07 19:37:00,92.0,51.0,-100.00,NNW,331,2.0,-999.0,24,0.00,,,-99.99,,2013-06-08 02:37:00,
2013-06-07 19:49:00,92.0,51.0,-100.00,NNW,331,2.0,-999.0,24,0.00,,,-99.99,,2013-06-08 02:49:00,
2013-06-07 19:56:00,92.0,51.0,-100.00,NNW,331,2.0,-999.0,24,0.00,,,-99.99,,2013-06-08 02:56:00,
2013-06-07 20:00:00,90.0,55.0,-100.00,NNW,345,4.0,-999.0,30,0.00,,,-99.99,,2013-06-08 03:00:00,
2013-06-07 20:27:00,90.0,55.0,-100.00,NNW,345,4.0,-999.0,30,0.00,,,-99.99,,2013-06-08 03:27:00,
2013-06-07 20:52:00,90.0,55.0,-100.00,NNW,345,4.0,-999.0,30,0.00,,,-99.99,,2013-06-08 03:52:00,
2013-06-07 21:00:00,85.0,56.0,-100.00,North,4,1.0,-999.0,38,0.00,,,-99.99,,2013-06-08 04:00:00,
2013-06-07 21:23:00,85.0,56.0,-100.00,North,4,1.0,-999.0,38,0.00,,,-99.99,,2013-06-08 04:23:00,
2013-06-07 21:33:00,85.0,56.0,-100.00,North,4,1.0,-999.0,38,0.00,,,-99.99,,2013-06-08 04:33:00,
2013-06-07 21:42:00,85.0,56.0,-100.00,North,4,1.0,-999.0,38,0.00,,,-99.99,,2013-06-08 04:42:00,
2013-06-07 21:53:00,85.0,56.0,-100.00,North,4,1.0,-999.0,38,0.00,,,-99.99,,2013-06-08 04:53:00,
2013-06-07 22:00:00,78.0,58.0,-100.00,NNW,343,1.0,-999.0,49,0.00,,,-99.99,,2013-06-08 05:00:00,
2013-06-07 22:22:00,78.0,58.0,-100.00,NNW,343,1.0,-999.0,49,0.00,,,-99.99,,2013-06-08 05:22:00,
2013-06-07 22:32:00,78.0,58.0,-100.00,NNW,343,1.0,-999.0,49,0.00,,,-99.99,,2013-06-08 05:32:00,
2013-06-07 22:42:00,78.0,58.0,-100.00,NNW,343,1.0,-999.0,49,0.00,,,-99.99,,2013-06-08 05:42:00,
2013-06-07 22:52:00,78.0,58.0,-100.00,NNW,343,1.0,-999.0,49,0.00,,,-99.99,,2013-06-08 05:52:00,
2013-06-07 23:00:00,73.0,58.0,-100.00,South,170,2.0,-999.0,58,0.00,,,-99.99,,2013-06-08 06:00:00,
2013-06-07 23:22:00,73.0,58.0,-100.00,South,170,2.0,-999.0,58,0.00,,,-99.99,,2013-06-08 06:22:00,
2013-06-07 23:32:00,73.0,58.0,-100.00,South,170,2.0,-999.0,58,0.00,,,-99.99,,2013-06-08 06:32:00,
2013-06-07 23:42:00,73.0,58.0,-100.00,South,170,2.0,-999.0,58,0.00,,,-99.99,,2013-06-08 06:42:00,
2013-06-07 23:52:00,73.0,58.0,-100.00,South,170,2.0,-999.0,58,0.00,,,-99.99,,2013-06-08 06:52:00,